Location: G?julap?du
(16.5372°N, 81.0979°E)
Time: 09:02:17
(UTC+00:00)

H-2A R/B - Pass Details

Date: 14 April 2026
Orbit: 266 x 27905 km, 28.3° (Epoch: 11 May)

Event Time Altitude Azimuth Distance (km) Brightness Sun altitude
Rises 13:34:26 0° 292° (WNW) 9,910 10.2 -11.0°
Reaches altitude 10° 13:45:58 10° 283° (WNW) 5,371 8.3 -13.7°
Maximum altitude 13:54:33 23° 235° (SW) 1,883 5.0 -15.7°
Drops below altitude 10° 13:57:39 10° 178° (S) 1,781 4.2 -16.4°
Enters shadow 13:58:02 - 173° (S) 1,873 4.3 -16.5°
